KC5TIL Weather Reports


Display with metric or nautical units.
time (UTC)temp
F
wind
direction
speed
MPH
gust
MPH
rain 1hr
in
rain 24hr
in
rain mn
in
humidity
%
barometer
mb
20260904065130 79 123 1.0 2.0 0.00 0.00 0.00 83 1014.7
20260904064625 79 128 0.0 1.0 0.00 0.00 0.00 83 1014.7
20260904064125 79 139 1.0 2.0 0.00 0.00 0.00 83 1014.7
20260904063621 79 128 0.0 3.0 0.00 0.00 0.00 83 1014.6
20260904063116 79 125 1.0 2.0 0.00 0.00 0.00 83 1014.5
20260904062612 79 144 0.0 5.0 0.00 0.00 0.00 83 1014.7
20260904062107 79 130 0.0 5.0 0.00 0.00 0.00 82 1014.6
20260904061603 79 126 1.0 2.0 0.00 0.00 0.00 82 1014.6
20260904061059 79 150 0.0 1.0 0.00 0.00 0.00 82 1014.7
20260904060555 79 134 1.0 2.0 0.00 0.00 0.00 82 1014.7
20260904060051 79 123 1.0 7.0 0.00 0.00 0.00 82 1014.6
20260904055546 80 112 1.0 5.0 0.00 0.00 0.00 81 1014.7
20260904055041 80 165 0.0 2.0 0.00 0.00 0.00 81 1014.8
20260904054537 80 106 0.0 1.0 0.00 0.00 0.00 81 1014.9
20260904054033 80 183 3.0 6.0 0.00 0.00 0.00 81 1014.7
20260904053532 80 155 1.0 2.0 0.00 0.00 0.00 81 1014.6
20260904053028 80 140 1.0 2.0 0.00 0.00 0.00 80 1014.7
20260904052524 80 118 3.0 6.0 0.00 0.00 0.00 80 1014.6
20260904052020 80 205 2.0 3.0 0.00 0.00 0.00 79 1014.6
20260904051516 80 138 2.0 5.0 0.00 0.00 0.00 79 1014.4
20260904051015 80 142 1.0 6.0 0.00 0.00 0.00 79 1014.5
20260904050512 80 135 3.0 5.0 0.00 0.00 0.00 78 1014.6
20260904050007 80 188 1.0 3.0 0.00 0.00 0.00 77 1014.7
20260904045502 80 146 1.0 3.0 0.00 0.00 0.00 77 1014.5
20260904044956 81 153 3.0 5.0 0.00 0.00 0.00 76 1014.6
20260904044453 81 174 1.0 2.0 0.00 0.00 0.00 76 1014.7
20260904043949 81 139 1.0 3.0 0.00 0.00 0.00 75 1014.6
20260904043445 81 133 1.0 5.0 0.00 0.00 0.00 74 1014.5
20260904042941 81 128 1.0 2.0 0.00 0.00 0.00 74 1014.5
20260904042437 81 148 1.0 5.0 0.00 0.00 0.00 73 1014.6
20260904041931 81 141 3.0 3.0 0.00 0.00 0.00 73 1014.6
20260904041428 81 125 1.0 5.0 0.00 0.00 0.00 72 1014.6
20260904040924 82 154 1.0 6.0 0.00 0.00 0.00 72 1014.7
20260904040423 82 165 4.0 6.0 0.00 0.00 0.00 71 1014.6
20260904035920 82 156 1.0 5.0 0.00 0.00 0.00 71 1014.5
20260904035415 82 150 2.0 3.0 0.00 0.00 0.00 71 1014.5
20260904034914 82 146 2.0 5.0 0.00 0.00 0.00 72 1014.5
20260904034410 82 153 3.0 5.0 0.00 0.00 0.00 72 1014.6
20260904033905 82 170 1.0 2.0 0.00 0.00 0.00 73 1014.5
20260904033402 82 128 1.0 3.0 0.00 0.00 0.00 74 1014.3
20260904032857 82 146 2.0 3.0 0.00 0.00 0.00 73 1014.4
20260904032352 82 190 2.0 3.0 0.00 0.00 0.00 73 1014.4
20260904031846 82 88 3.0 5.0 0.00 0.00 0.00 73 1014.4
20260904031341 82 157 2.0 5.0 0.00 0.00 0.00 73 1014.3
20260904030838 83 146 2.0 5.0 0.00 0.00 0.00 73 1014.4
20260904030333 83 141 1.0 6.0 0.00 0.00 0.00 73 1014.2
20260904025829 83 155 4.0 7.0 0.00 0.00 0.00 73 1014.2
20260904025325 83 152 2.0 3.0 0.00 0.00 0.00 74 1014.2
20260904024824 83 125 2.0 3.0 0.00 0.00 0.00 73 1014.1
20260904024319 83 193 3.0 5.0 0.00 0.00 0.00 73 1014.0
20260904023816 84 182 4.0 5.0 0.00 0.00 0.00 74 1014.1
20260904023312 84 130 2.0 3.0 0.00 0.00 0.00 74 1014.0
20260904022811 84 172 5.0 7.0 0.00 0.00 0.00 74 1013.9
20260904022308 84 132 3.0 3.0 0.00 0.00 0.00 74 1013.7
20260904021805 84 131 1.0 3.0 0.00 0.00 0.00 76 1013.6
20260904021259 84 130 2.0 3.0 0.00 0.00 0.00 76 1013.6
20260904020754 84 157 2.0 3.0 0.00 0.00 0.00 75 1013.3
20260904020254 84 138 3.0 5.0 0.00 0.00 0.00 74 1013.2
20260904015753 84 128 2.0 6.0 0.00 0.00 0.00 75 1013.1
20260904015248 85 144 4.0 6.0 0.00 0.00 0.00 74 1013.2
20260904014746 85 194 2.0 5.0 0.00 0.00 0.00 71 1013.0
20260904014242 85 109 2.0 5.0 0.00 0.00 0.00 68 1012.8
20260904013738 85 152 2.0 5.0 0.00 0.00 0.00 67 1012.6
20260904013234 86 183 3.0 6.0 0.00 0.00 0.00 65 1012.7
20260904012730 86 131 2.0 5.0 0.00 0.00 0.00 65 1012.4
20260904012229 86 174 2.0 3.0 0.00 0.00 0.00 64 1012.5
20260904011728 86 124 2.0 5.0 0.00 0.00 0.00 63 1012.4
20260904011223 86 116 3.0 5.0 0.00 0.00 0.00 63 1012.3
20260904010718 86 136 3.0 5.0 0.00 0.00 0.00 62 1012.3
20260904010215 86 127 3.0 5.0 0.00 0.00 0.00 62 1012.2
20260904005710 87 159 2.0 5.0 0.00 0.00 0.00 62 1012.3
20260904005206 87 113 4.0 6.0 0.00 0.00 0.00 63 1012.2
20260904004701 87 139 2.0 5.0 0.00 0.00 0.00 64 1012.1
20260904004201 87 111 2.0 5.0 0.00 0.00 0.00 65 1012.1
20260904003651 87 166 4.0 7.0 0.00 0.00 0.00 64 1012.3
20260904003147 87 180 4.0 6.0 0.00 0.00 0.00 64 1012.3
20260904002643 88 142 5.0 9.0 0.00 0.00 0.00 63 1012.1
20260904002138 88 141 2.0 3.0 0.00 0.00 0.00 64 1012.2
20260904001633 88 149 5.0 7.0 0.00 0.00 0.00 63 1012.2
20260904001132 88 159 1.0 3.0 0.00 0.00 0.00 64 1012.3
20260904000627 89 174 4.0 7.0 0.00 0.00 0.00 63 1012.2
20260904000123 89 141 4.0 7.0 0.00 0.00 0.00 63 1012.1
20260903235622 89 142 3.0 5.0 0.00 0.00 0.00 65 1012.0
20260903235119 89 148 4.0 7.0 0.00 0.00 0.00 63 1011.9
20260903234613 89 107 6.0 9.0 0.00 0.00 0.00 63 1012.0
20260903234109 89 115 3.0 6.0 0.00 0.00 0.00 63 1011.8
20260903233605 89 125 3.0 8.0 0.00 0.00 0.00 63 1011.8
20260903233101 89 140 3.0 6.0 0.00 0.00 0.00 64 1011.8
20260903232555 89 115 4.0 6.0 0.00 0.00 0.00 66 1011.7
20260903232051 89 77 4.0 7.0 0.00 0.00 0.00 63 1011.7
20260903231545 90 143 3.0 5.0 0.00 0.00 0.00 64 1011.8
20260903231039 90 104 3.0 5.0 0.00 0.00 0.00 63 1011.8
20260903230536 91 158 2.0 6.0 0.00 0.00 0.00 62 1011.7
20260903230034 91 115 2.0 5.0 0.00 0.00 0.00 62 1011.6
20260903225532 92 158 5.0 7.0 0.00 0.00 0.00 60 1011.7
20260903225028 92 131 3.0 5.0 0.00 0.00 0.00 60 1011.5
20260903224524 91 155 2.0 5.0 0.00 0.00 0.00 62 1011.5
20260903224020 92 103 3.0 5.0 0.00 0.00 0.00 61 1011.5
20260903223519 92 147 2.0 5.0 0.00 0.00 0.00 61 1011.4
20260903223018 91 163 2.0 5.0 0.00 0.00 0.00 61 1011.7
20260903222513 91 132 5.0 7.0 0.00 0.00 0.00 61 1011.7
20260903222012 92 103 3.0 5.0 0.00 0.00 0.00 62 1011.7
20260903221508 92 96 3.0 8.0 0.00 0.00 0.00 60 1011.7
20260903221005 92 131 3.0 5.0 0.00 0.00 0.00 61 1011.7
20260903220459 92 152 2.0 3.0 0.00 0.00 0.00 62 1011.8
20260903215956 92 88 3.0 5.0 0.00 0.00 0.00 61 1011.8
20260903215453 92 177 3.0 6.0 0.00 0.00 0.00 63 1011.7
20260903214951 94 140 3.0 5.0 0.00 0.00 0.00 58 1011.8
20260903214446 93 116 2.0 6.0 0.00 0.00 0.00 62 1011.7
20260903213941 92 25 2.0 6.0 0.00 0.00 0.00 62 1011.8
20260903213437 92 141 2.0 5.0 0.00 0.00 0.00 62 1011.8
20260903212932 92 152 3.0 6.0 0.00 0.00 0.00 62 1011.7
20260903212428 91 117 1.0 6.0 0.00 0.00 0.00 64 1011.8
20260903211922 90 102 0.0 6.0 0.00 0.00 0.00 66 1012.0
20260903211418 91 165 3.0 5.0 0.00 0.00 0.00 64 1012.1
20260903210914 92 143 3.0 5.0 0.00 0.00 0.00 63 1011.8
20260903210413 91 166 0.0 6.0 0.00 0.00 0.00 62 1012.1
20260903205909 92 110 2.0 6.0 0.00 0.00 0.00 63 1012.1
20260903205409 93 160 1.0 2.0 0.00 0.00 0.00 60 1012.3
20260903204903 92 148 2.0 3.0 0.00 0.00 0.00 61 1012.4
20260903204359 91 129 2.0 3.0 0.00 0.00 0.00 64 1012.5
20260903203855 91 137 1.0 2.0 0.00 0.00 0.00 62 1012.7
20260903203350 92 217 2.0 7.0 0.00 0.00 0.00 62 1012.2
20260903202849 90 165 1.0 3.0 0.00 0.00 0.00 64 1012.5
20260903202346 91 50 2.0 6.0 0.00 0.00 0.00 64 1012.6
20260903201845 92 58 1.0 5.0 0.00 0.00 0.00 61 1012.5
20260903201341 91 142 2.0 5.0 0.00 0.00 0.00 65 1012.6
20260903200839 94 135 1.0 5.0 0.00 0.00 0.00 61 1012.6
20260903200335 91 137 1.0 3.0 0.00 0.00 0.00 63 1012.6
20260903195830 91 88 3.0 8.0 0.00 0.00 0.00 64 1012.4
20260903195326 92 70 2.0 6.0 0.00 0.00 0.00 63 1012.8
20260903194821 91 114 4.0 5.0 0.00 0.00 0.00 63 1012.7
20260903194317 92 75 4.0 7.0 0.00 0.00 0.00 62 1012.8
20260903193812 91 71 2.0 5.0 0.00 0.00 0.00 64 1012.8
20260903193308 90 138 1.0 8.0 0.00 0.00 0.00 65 1013.0
20260903192803 90 147 2.0 5.0 0.00 0.00 0.00 65 1012.9
20260903192259 90 123 1.0 5.0 0.00 0.00 0.00 65 1012.9
20260903191754 90 118 1.0 6.0 0.00 0.00 0.00 65 1013.0
20260903191245 89 116 3.0 3.0 0.00 0.00 0.00 66 1013.2
20260903190739 89 148 2.0 3.0 0.00 0.00 0.00 66 1013.3
20260903190239 89 159 2.0 3.0 0.00 0.00 0.00 67 1013.2
20260903185734 90 123 1.0 7.0 0.00 0.00 0.00 65 1013.4
20260903185228 89 264 2.0 5.0 0.00 0.00 0.00 67 1013.6
20260903184725 88 196 3.0 7.0 0.00 0.00 0.00 69 1013.5
20260903184221 88 131 3.0 6.0 0.00 0.00 0.00 71 1013.6
20260903183721 88 134 2.0 7.0 0.00 0.00 0.00 70 1013.9
20260903183215 89 137 2.0 7.0 0.00 0.00 0.00 71 1013.9
20260903182713 89 102 3.0 5.0 0.00 0.00 0.00 69 1013.6
20260903182209 89 134 2.0 6.0 0.00 0.00 0.00 69 1014.0
20260903181708 91 98 3.0 7.0 0.00 0.00 0.00 66 1013.9
20260903181203 93 103 2.0 3.0 0.00 0.00 0.00 60 1013.9
20260903180658 93 77 3.0 5.0 0.00 0.00 0.00 59 1014.0
20260903180152 93 165 2.0 7.0 0.00 0.00 0.00 60 1014.0
20260903175651 93 323 4.0 6.0 0.00 0.00 0.00 61 1014.0
20260903175151 93 144 3.0 5.0 0.00 0.00 0.00 61 1014.2
20260903174645 91 120 1.0 3.0 0.00 0.00 0.00 66 1014.2
20260903174140 90 144 4.0 8.0 0.00 0.00 0.00 66 1014.2
20260903173635 90 157 4.0 7.0 0.00 0.00 0.00 66 1014.2
20260903173132 90 156 2.0 5.0 0.00 0.00 0.00 65 1014.5
20260903172631 90 144 2.0 8.0 0.00 0.00 0.00 66 1014.4
20260903172127 89 131 1.0 6.0 0.00 0.00 0.00 66 1014.4
20260903171627 89 116 7.0 9.0 0.00 0.00 0.00 67 1014.4
20260903171123 89 142 2.0 5.0 0.00 0.00 0.00 66 1014.5
20260903170621 89 128 1.0 5.0 0.00 0.00 0.00 68 1014.5
20260903170117 88 125 2.0 5.0 0.00 0.00 0.00 69 1014.5
20260903165615 88 176 4.0 6.0 0.00 0.00 0.00 69 1014.6
20260903165110 88 103 1.0 6.0 0.00 0.00 0.00 70 1014.5
20260903164605 87 123 1.0 3.0 0.00 0.00 0.00 72 1014.5
20260903164100 87 143 3.0 5.0 0.00 0.00 0.00 72 1014.2
20260903163555 87 90 3.0 6.0 0.00 0.00 0.00 71 1014.7
20260903163051 86 137 2.0 5.0 0.00 0.00 0.00 73 1014.7
20260903162547 86 192 2.0 5.0 0.00 0.00 0.00 74 1014.6
20260903162043 86 147 3.0 9.0 0.00 0.00 0.00 75 1014.7
20260903161538 86 139 1.0 3.0 0.00 0.00 0.00 74 1014.6
20260903161034 86 98 3.0 6.0 0.00 0.00 0.00 73 1014.5
20260903160533 86 239 2.0 5.0 0.00 0.00 0.00 75 1014.6
20260903160028 86 147 2.0 2.0 0.00 0.00 0.00 76 1014.6
20260903155526 85 111 3.0 5.0 0.00 0.00 0.00 76 1014.9
20260903155022 85 136 3.0 9.0 0.00 0.00 0.00 76 1014.7
20260903154518 84 108 3.0 5.0 0.00 0.00 0.00 76 1014.6
20260903154014 85 91 3.0 3.0 0.00 0.00 0.00 76 1014.7
20260903153509 84 80 3.0 3.0 0.00 0.00 0.00 76 1014.6
20260903153005 84 105 1.0 2.0 0.00 0.00 0.00 76 1014.6
20260903152500 84 168 1.0 5.0 0.00 0.00 0.00 77 1014.7
20260903151957 84 124 2.0 3.0 0.00 0.00 0.00 77 1014.6
20260903151450 83 121 1.0 3.0 0.00 0.00 0.00 78 1014.6
20260903150946 83 124 1.0 5.0 0.00 0.00 0.00 78 1014.8
20260903150439 83 111 2.0 2.0 0.00 0.00 0.00 80 1014.7
20260903145934 82 136 2.0 3.0 0.00 0.00 0.00 80 1014.9
20260903145430 82 193 3.0 3.0 0.00 0.00 0.00 80 1014.8
20260903144924 82 163 3.0 6.0 0.00 0.00 0.00 81 1015.0
20260903144424 82 126 2.0 3.0 0.00 0.00 0.00 81 1014.9
20260903143920 82 141 1.0 3.0 0.00 0.00 0.00 80 1014.9
20260903143416 82 159 2.0 5.0 0.00 0.00 0.00 81 1014.9
20260903142911 82 153 2.0 2.0 0.00 0.00 0.00 81 1014.9
20260903142407 82 104 1.0 2.0 0.00 0.00 0.00 80 1014.7
20260903141902 81 129 1.0 1.0 0.00 0.00 0.00 81 1014.8
20260903141353 81 124 1.0 3.0 0.00 0.00 0.00 81 1014.8
20260903140848 81 132 1.0 2.0 0.00 0.00 0.00 82 1014.8
20260903140343 80 101 1.0 2.0 0.00 0.00 0.00 82 1014.8
20260903135838 80 126 0.0 1.0 0.00 0.00 0.00 83 1014.8
20260903135333 80 133 1.0 2.0 0.00 0.00 0.00 83 1014.9
20260903134832 80 122 1.0 2.0 0.00 0.00 0.00 83 1014.8
20260903134327 80 139 2.0 3.0 0.00 0.00 0.00 83 1014.7
20260903133826 79 155 1.0 5.0 0.00 0.00 0.00 83 1014.9
20260903133322 79 127 2.0 3.0 0.00 0.00 0.00 83 1014.7
20260903132821 79 132 1.0 3.0 0.00 0.00 0.00 83 1014.5
20260903132313 79 136 1.0 1.0 0.00 0.00 0.00 84 1014.5
20260903131807 79 141 1.0 2.0 0.00 0.00 0.00 84 1014.5
20260903131307 79 128 2.0 2.0 0.00 0.00 0.00 84 1014.5
20260903130801 79 124 1.0 2.0 0.00 0.00 0.00 85 1014.6
20260903130256 78 144 1.0 3.0 0.00 0.00 0.00 85 1014.8
20260903125754 78 109 1.0 1.0 0.00 0.00 0.00 85 1014.6
20260903125250 78 163 1.0 3.0 0.00 0.00 0.00 85 1014.6
20260903124749 78 127 0.0 1.0 0.00 0.00 0.00 85 1014.8
20260903124245 78 113 1.0 1.0 0.00 0.00 0.00 85 1014.7
20260903123743 78 135 0.0 1.0 0.00 0.00 0.00 85 1014.6
20260903123242 78 130 1.0 1.0 0.00 0.00 0.00 85 1014.5
20260903122741 78 119 1.0 2.0 0.00 0.00 0.00 85 1014.4
20260903122236 78 128 1.0 1.0 0.00 0.00 0.00 85 1014.4
20260903121734 78 160 1.0 2.0 0.00 0.00 0.00 85 1014.5
20260903121231 78 109 1.0 2.0 0.00 0.00 0.00 85 1014.4
20260903120731 78 160 1.0 2.0 0.00 0.00 0.00 84 1014.4
20260903120224 78 149 1.0 2.0 0.00 0.00 0.00 84 1014.3
20260903115723 78 122 0.0 1.0 0.00 0.00 0.00 84 1014.4
20260903115218 78 169 1.0 2.0 0.00 0.00 0.00 84 1014.5
20260903114712 78 139 0.0 1.0 0.00 0.00 0.00 84 1014.6
20260903114208 78 129 0.0 1.0 0.00 0.00 0.00 84 1014.5
20260903113703 78 130 0.0 2.0 0.00 0.00 0.00 84 1014.4
20260903113159 78 130 1.0 1.0 0.00 0.00 0.00 83 1014.3
20260903112655 78 135 2.0 2.0 0.00 0.00 0.00 83 1014.4
20260903112150 78 142 2.0 2.0 0.00 0.00 0.00 83 1014.2
20260903111649 78 146 1.0 7.0 0.00 0.00 0.00 82 1014.3
20260903111145 78 128 1.0 5.0 0.00 0.00 0.00 82 1014.4
20260903110641 78 134 1.0 2.0 0.00 0.00 0.00 83 1014.3
20260903110137 78 129 1.0 2.0 0.00 0.00 0.00 83 1014.2
20260903105630 79 128 0.0 1.0 0.00 0.00 0.00 83 1014.3
20260903105120 78 131 1.0 2.0 0.00 0.00 0.00 82 1014.3
20260903104620 78 131 0.0 1.0 0.00 0.00 0.00 82 1014.0
20260903104116 79 136 1.0 2.0 0.00 0.00 0.00 82 1014.0
20260903103611 78 152 0.0 1.0 0.00 0.00 0.00 82 1014.2
20260903103107 78 132 1.0 1.0 0.00 0.00 0.00 82 1014.0
20260903102602 78 133 0.0 1.0 0.00 0.00 0.00 83 1014.0
20260903102101 79 129 0.0 2.0 0.00 0.00 0.00 82 1014.0
20260903101555 78 131 1.0 2.0 0.00 0.00 0.00 82 1014.1
20260903101046 78 154 1.0 2.0 0.00 0.00 0.00 82 1014.2
20260903100546 78 132 0.0 1.0 0.00 0.00 0.00 83 1014.1
20260903100044 78 122 1.0 2.0 0.00 0.00 0.00 82 1014.2
20260903095542 78 128 1.0 1.0 0.00 0.00 0.00 82 1014.2
20260903095037 78 140 1.0 1.0 0.00 0.00 0.00 82 1014.0
20260903094537 78 140 0.0 1.0 0.00 0.00 0.00 82 1014.3
20260903094033 78 126 0.0 1.0 0.00 0.00 0.00 82 1014.1
20260903093533 78 120 0.0 1.0 0.00 0.00 0.00 82 1014.0
20260903093029 78 121 1.0 1.0 0.00 0.00 0.00 82 1014.2
20260903092528 78 136 1.0 2.0 0.00 0.00 0.00 82 1014.1
20260903092022 78 123 0.0 0.0 0.00 0.00 0.00 81 1014.1
20260903091520 78 124 0.0 1.0 0.00 0.00 0.00 81 1013.9
20260903091015 78 111 0.0 1.0 0.00 0.00 0.00 81 1014.0
20260903090512 78 123 0.0 0.0 0.00 0.00 0.00 80 1014.0
20260903090010 78 124 0.0 0.0 0.00 0.00 0.00 80 1014.0
20260903085508 78 122 0.0 0.0 0.00 0.00 0.00 80 1014.2
20260903085004 78 129 0.0 0.0 0.00 0.00 0.00 80 1014.1
20260903084503 78 103 0.0 1.0 0.00 0.00 0.00 79 1014.2
20260903083957 78 118 0.0 0.0 0.00 0.00 0.00 80 1014.0
20260903083453 78 118 0.0 0.0 0.00 0.00 0.00 79 1014.0
20260903082953 78 89 0.0 1.0 0.00 0.00 0.00 79 1014.2
20260903082447 79 104 0.0 1.0 0.00 0.00 0.00 79 1014.2
20260903081942 78 131 0.0 1.0 0.00 0.00 0.00 79 1014.2
20260903081438 79 123 0.0 0.0 0.00 0.00 0.00 78 1014.2
20260903080934 79 137 0.0 1.0 0.00 0.00 0.00 78 1014.1
20260903080430 79 134 0.0 1.0 0.00 0.00 0.00 78 1014.2
20260903075925 79 108 0.0 1.0 0.00 0.00 0.00 78 1014.1
20260903075421 79 125 0.0 0.0 0.00 0.00 0.00 78 1013.9
20260903074921 79 115 0.0 0.0 0.00 0.00 0.00 77 1014.1
20260903074415 79 127 0.0 0.0 0.00 0.00 0.00 77 1014.2
20260903073911 79 128 0.0 0.0 0.00 0.00 0.00 77 1014.3
20260903073405 80 126 0.0 1.0 0.00 0.00 0.00 77 1014.3
20260903072901 79 126 1.0 2.0 0.00 0.00 0.00 77 1014.5
20260903072357 79 120 0.0 2.0 0.00 0.00 0.00 77 1014.3
20260903071853 80 124 1.0 1.0 0.00 0.00 0.00 76 1014.2
20260903071349 80 114 0.0 1.0 0.00 0.00 0.00 76 1014.3
20260903070844 80 123 0.0 1.0 0.00 0.00 0.00 75 1014.3
20260903070334 80 110 1.0 2.0 0.00 0.00 0.00 75 1014.3
20260903065828 80 129 0.0 0.0 0.00 0.00 0.00 75 1014.2
20260903065327 80 133 0.0 1.0 0.00 0.00 0.00 75 1014.3